CZ-6A DEB, 60786

Orbit data source: Space-Track

CZ-6A DEB, 60786 is space debris in LEO originally from a launch on Tue, 06 Aug 2024 UTC launched from the Taiyaun Space Center, China (TSC). Debris objects in space refer to the collection of defunct objects orbiting the Earth. Examples of debris include non-operational satellites, rocket bodies, and fragments generated from explosions, collisions, or faulty payload assembly.

Loading next visibility...
Identifier
60786, 2024-140FM
Orbit
LEO
Country
Flag of CNCN / PRC
Related business
Manufacturer
SAST
Mission
Spacecraft
Bus & Motor
Unknown
Mass
Unknown
Launch date (UTC)
2024-08-06 (2 years ago)
Launch vehicle
Unknown
Launch site
Taiyaun Space Center, China (TSC)
Object type
Payload
Rocket body
Debris
Shape & HBR
Unknown shape, 0.1 m
Radar Cross Section
Medium (>0.1 m² and <1 m²)

Expand to show TLE details & history
Last TLE update: 11 hours ago

TLE from 11 hours ago
0 CZ-6A DEB
1 60786U 24140FM  26171.36800020  .00064978  00000-0  15189-2 0  9994
2 60786  89.2091 285.5739 0070750   2.5843 357.5763 15.39282149101303
Epoch: 2026-06-20T08:49Z
TLE epoch observation values (Epoch: 2026-06-20T08:49:55.217Z)
Latitude
-0.00004°
Longitude
-115.4898°
Altitude
403.189 km
Speed
7.696 km/s
True Right ascension
19h 02m 17s
True Declination
0° 00' 00"
Sunlit
Object was in full shadow at epoch
Visualization orbit readout
Latitude
Unknown
Longitude
Unknown
Altitude
Unknown
Speed
Unknown
Apparent Right ascension
Unknown
Apparent Declination
Unknown
Sunlit
N/A
Visualization observer readout
Local Sidereal Time
07:12:36
Azimuth
Unknown
Elevation
Unknown
Doppler factor
Unknown
Orbital elements
Apogee altitude
493.286 km
Perigee altitude
396.738 km
Semi-major axis
6,823.149 km
Eccentricity
0.00708
Inclination
89.2091°
RAAN
285.5739°
Arg. of periapsis
2.5843°
True anomaly
357.54171°
Mean anomaly
357.5763°
Eccentric anomaly
357.55904°
Mean motion
3.85093 °/min
Orbital period
93.48 mins
BSTAR
0.0015189
Loading maneuver chart data...
Computing Atmospheric mass density...
Loading historical data...
Loading historical data...
Loading historical data...
Loading historical data...
Loading historical data...
Loading historical data...
Loading historical data...

Documentation

Showing up to 5 results
|